TimeICT,TemperatureF,Dew PointF,Humidity,Sea Level PressureIn,VisibilityMPH,Wind Direction,Wind SpeedMPH,Gust SpeedMPH,PrecipitationIn,Events,Conditions,WindDirDegrees,DateUTC
12:00 AM,80.6,77.0,89,29.89,6.2,Calm,Calm,-,N/A,,Mostly Cloudy,0,2012-11-25 17:00:00
12:30 AM,80.6,77.0,89,29.89,6.2,Calm,Calm,-,N/A,,Mostly Cloudy,0,2012-11-25 17:30:00
1:00 AM,80,77,89,29.88,6,Calm,Calm,,,,Partly Cloudy,,2012-11-25 18:00:00
1:00 AM,80.6,77.0,89,29.86,6.2,Calm,Calm,-,N/A,,Mostly Cloudy,0,2012-11-25 18:00:00
1:30 AM,80.6,77.0,89,29.86,6.2,Calm,Calm,-,N/A,,Mostly Cloudy,0,2012-11-25 18:30:00
2:00 AM,80.6,77.0,89,29.83,5.6,NE,3.5,-,N/A,,Mostly Cloudy,40,2012-11-25 19:00:00
2:30 AM,78.8,77.0,94,29.83,5.6,North,3.5,-,N/A,,Mostly Cloudy,10,2012-11-25 19:30:00
3:00 AM,78.8,77.0,94,29.83,5.6,North,4.6,-,N/A,,Mostly Cloudy,360,2012-11-25 20:00:00
3:30 AM,78.8,77.0,94,29.83,4.3,NNW,3.5,-,N/A,,Mostly Cloudy,340,2012-11-25 20:30:00
4:00 AM,78.8,77.0,94,29.83,3.1,NE,3.5,-,N/A,,Mostly Cloudy,50,2012-11-25 21:00:00
4:30 AM,78.8,77.0,94,29.83,3.1,North,3.5,-,N/A,,Mostly Cloudy,10,2012-11-25 21:30:00
5:00 AM,78.8,77.0,94,29.83,2.5,NNE,3.5,-,N/A,,Mostly Cloudy,30,2012-11-25 22:00:00
5:30 AM,78.8,77.0,94,29.83,2.5,NE,3.5,-,N/A,,Mostly Cloudy,40,2012-11-25 22:30:00
6:00 AM,78.8,77.0,94,29.83,1.9,Calm,Calm,-,N/A,,Mostly Cloudy,0,2012-11-25 23:00:00
6:30 AM,78.8,77.0,94,29.86,1.9,Calm,Calm,-,N/A,,Mostly Cloudy,0,2012-11-25 23:30:00
7:00 AM,78,76,93,29.87,2,ESE,3.5,,,,Mist,120,2012-11-26 00:00:00
7:00 AM,78.8,77.0,94,29.86,1.9,ESE,3.5,-,N/A,,Mostly Cloudy,120,2012-11-26 00:00:00
7:30 AM,78.8,77.0,94,29.86,1.9,ESE,3.5,-,N/A,,Mostly Cloudy,110,2012-11-26 00:30:00
8:00 AM,78.8,77.0,94,29.89,1.9,East,3.5,-,N/A,,Mostly Cloudy,90,2012-11-26 01:00:00
8:30 AM,82.4,75.2,79,29.89,2.5,ENE,3.5,-,N/A,,Mostly Cloudy,60,2012-11-26 01:30:00
9:00 AM,82.4,75.2,79,29.89,2.5,ENE,9.2,-,N/A,,Mostly Cloudy,60,2012-11-26 02:00:00
9:30 AM,84.2,75.2,74,29.92,3.1,NE,3.5,-,N/A,,Mostly Cloudy,40,2012-11-26 02:30:00
10:00 AM,84.2,75.2,74,29.92,3.7,ENE,4.6,-,N/A,,Mostly Cloudy,60,2012-11-26 03:00:00
10:30 AM,86.0,75.2,70,29.92,4.3,NNE,3.5,-,N/A,,Mostly Cloudy,30,2012-11-26 03:30:00
11:00 AM,86.0,75.2,70,29.89,5.0,ENE,6.9,-,N/A,,Mostly Cloudy,60,2012-11-26 04:00:00
11:30 AM,87.8,75.2,66,29.89,5.6,ENE,6.9,-,N/A,,Mostly Cloudy,60,2012-11-26 04:30:00
12:00 PM,86.0,73.4,66,29.86,6.2,South,3.5,-,N/A,,Mostly Cloudy,180,2012-11-26 05:00:00
12:30 PM,87.8,73.4,62,29.83,6.2,East,5.8,-,N/A,,Mostly Cloudy,90,2012-11-26 05:30:00
1:00 PM,88,72,50,29.83,6,ESE,5.8,,,,Mist,120,2012-11-26 06:00:00
1:00 PM,87.8,71.6,58,29.83,6.2,ESE,5.8,-,N/A,,Mostly Cloudy,120,2012-11-26 06:00:00
1:30 PM,89.6,73.4,59,29.80,6.2,ESE,3.5,-,N/A,,Mostly Cloudy,120,2012-11-26 06:30:00
2:00 PM,89.6,73.4,59,29.80,6.2,South,4.6,-,N/A,,Mostly Cloudy,180,2012-11-26 07:00:00
2:30 PM,89.6,73.4,59,29.77,6.2,SSE,3.5,-,N/A,,Mostly Cloudy,150,2012-11-26 07:30:00
3:00 PM,89.6,71.6,55,29.77,6.2,SSE,4.6,-,N/A,,Mostly Cloudy,150,2012-11-26 08:00:00
3:30 PM,87.8,69.8,55,29.77,6.2,SSW,5.8,-,N/A,,Mostly Cloudy,210,2012-11-26 08:30:00
4:00 PM,89.6,73.4,59,29.77,6.2,South,4.6,-,N/A,,Mostly Cloudy,180,2012-11-26 09:00:00
4:30 PM,87.8,73.4,62,29.77,6.2,West,6.9,-,N/A,,Mostly Cloudy,270,2012-11-26 09:30:00
5:00 PM,86.0,73.4,66,29.77,6.2,West,5.8,-,N/A,,Mostly Cloudy,270,2012-11-26 10:00:00
5:30 PM,84.2,75.2,74,29.77,6.2,West,3.5,-,N/A,,Mostly Cloudy,260,2012-11-26 10:30:00
6:00 PM,84.2,75.2,74,29.83,6.2,West,3.5,-,N/A,,Mostly Cloudy,270,2012-11-26 11:00:00
6:30 PM,80.6,73.4,79,29.83,5.0,SE,9.2,-,N/A,,Mostly Cloudy,140,2012-11-26 11:30:00
7:00 PM,75,70,79,29.87,2,East,23.0,,,Rain-Thunderstorm,Thunderstorms and Rain,90,2012-11-26 12:00:00
7:00 PM,75.2,69.8,83,29.86,2.5,East,23.0,-,N/A,Rain-Thunderstorm,Thunderstorms and Rain,90,2012-11-26 12:00:00
7:30 PM,75.2,71.6,89,29.86,4.3,WNW,5.8,-,N/A,Rain-Thunderstorm,Light Thunderstorms and Rain,300,2012-11-26 12:30:00
8:00 PM,77.0,71.6,83,29.86,5.0,WNW,8.1,-,N/A,Rain,Light Rain,300,2012-11-26 13:00:00
8:30 PM,77.0,73.4,89,29.86,5.6,Calm,Calm,-,N/A,Rain,Light Rain,0,2012-11-26 13:30:00
9:00 PM,77.0,73.4,89,29.86,5.6,Calm,Calm,-,N/A,Rain,Light Rain,0,2012-11-26 14:00:00
9:30 PM,77.0,73.4,89,29.86,6.2,Calm,Calm,-,N/A,Rain,Light Rain,0,2012-11-26 14:30:00
10:00 PM,77.0,73.4,89,29.89,6.2,Calm,Calm,-,N/A,,Mostly Cloudy,0,2012-11-26 15:00:00
10:30 PM,77.0,75.2,94,29.86,6.2,SSE,2.3,-,N/A,,Mostly Cloudy,150,2012-11-26 15:30:00
11:00 PM,77.0,73.4,89,29.86,6.2,Calm,Calm,-,N/A,,Mostly Cloudy,0,2012-11-26 16:00:00
11:30 PM,77.0,73.4,89,29.86,6.2,East,3.5,-,N/A,,Mostly Cloudy,90,2012-11-26 16:30:00